TimeEDT,TemperatureF,Dew PointF,Humidity,Sea Level PressureIn,VisibilityMPH,Wind Direction,Wind SpeedMPH,Gust SpeedMPH,PrecipitationIn,Events,Conditions,WindDirDegrees,DateUTC
12:15 AM,44.6,41.0,87,30.09,10.0,Calm,Calm,-,N/A,,Overcast,0,2012-10-10 04:15:00
12:35 AM,44.6,41.0,87,30.09,10.0,SSE,3.5,-,N/A,,Overcast,150,2012-10-10 04:35:00
12:55 AM,44.6,41.0,87,30.09,10.0,Calm,Calm,-,N/A,,Overcast,0,2012-10-10 04:55:00
1:15 AM,44.6,41.0,87,30.08,10.0,Calm,Calm,-,N/A,,Overcast,0,2012-10-10 05:15:00
1:35 AM,44.6,41.0,87,30.08,10.0,Calm,Calm,-,N/A,,Overcast,0,2012-10-10 05:35:00
1:55 AM,44.6,41.0,87,30.08,10.0,Calm,Calm,-,N/A,,Overcast,0,2012-10-10 05:55:00
2:15 AM,44.6,41.0,87,30.08,10.0,Calm,Calm,-,N/A,,Overcast,0,2012-10-10 06:15:00
2:35 AM,44.6,41.0,87,30.08,10.0,Calm,Calm,-,N/A,,Overcast,0,2012-10-10 06:35:00
2:55 AM,44.6,41.0,87,30.07,10.0,Calm,Calm,-,N/A,,Overcast,0,2012-10-10 06:55:00
3:15 AM,44.6,41.0,87,30.06,10.0,West,4.6,-,N/A,,Overcast,280,2012-10-10 07:15:00
3:35 AM,42.8,39.2,87,30.05,10.0,WNW,3.5,-,N/A,,Scattered Clouds,290,2012-10-10 07:35:00
4:15 AM,41.0,39.2,93,30.04,10.0,Calm,Calm,-,N/A,,Clear,0,2012-10-10 08:15:00
4:35 AM,41.0,39.2,93,30.04,10.0,Calm,Calm,-,N/A,,Clear,0,2012-10-10 08:35:00
4:55 AM,42.8,39.2,87,30.04,10.0,Calm,Calm,-,N/A,,Clear,0,2012-10-10 08:55:00
5:15 AM,41.0,39.2,93,30.04,10.0,WNW,4.6,-,N/A,,Clear,290,2012-10-10 09:15:00
5:35 AM,46.4,35.6,66,30.04,10.0,WSW,5.8,17.3,N/A,,Clear,250,2012-10-10 09:35:00
5:55 AM,46.4,37.4,71,30.04,10.0,Calm,Calm,-,N/A,,Clear,0,2012-10-10 09:55:00
6:15 AM,44.6,37.4,76,30.05,10.0,SE,4.6,-,N/A,,Clear,130,2012-10-10 10:15:00
6:35 AM,46.4,41.0,81,30.06,10.0,West,9.2,-,N/A,,Scattered Clouds,280,2012-10-10 10:35:00
6:55 AM,46.4,41.0,81,30.06,10.0,West,12.7,26.5,N/A,,Scattered Clouds,280,2012-10-10 10:55:00
7:15 AM,48.2,41.0,76,30.06,10.0,WNW,17.3,28.8,N/A,,Clear,290,2012-10-10 11:15:00
7:35 AM,48.2,41.0,76,30.06,10.0,West,17.3,29.9,N/A,,Clear,280,2012-10-10 11:35:00
7:55 AM,50.0,41.0,71,30.06,10.0,West,19.6,32.2,N/A,,Clear,280,2012-10-10 11:55:00
8:15 AM,50.0,41.0,71,30.06,10.0,West,25.3,33.4,N/A,,Scattered Clouds,280,2012-10-10 12:15:00
8:35 AM,50.0,41.0,71,30.06,10.0,WNW,25.3,39.1,N/A,,Scattered Clouds,290,2012-10-10 12:35:00
8:55 AM,50.0,41.0,71,30.06,10.0,WNW,26.5,35.7,N/A,,Scattered Clouds,290,2012-10-10 12:55:00
9:15 AM,50.0,41.0,71,30.06,10.0,WNW,25.3,40.3,N/A,,Mostly Cloudy,290,2012-10-10 13:15:00
9:35 AM,51.8,41.0,67,30.07,10.0,WNW,24.2,38.0,N/A,,Mostly Cloudy,290,2012-10-10 13:35:00
10:15 AM,51.8,41.0,67,30.07,10.0,WNW,19.6,34.5,N/A,,Mostly Cloudy,290,2012-10-10 14:15:00
10:35 AM,51.8,41.0,67,30.06,10.0,WNW,26.5,38.0,N/A,,Scattered Clouds,290,2012-10-10 14:35:00
10:55 AM,51.8,41.0,67,30.07,10.0,WNW,20.7,34.5,N/A,,Mostly Cloudy,290,2012-10-10 14:55:00
11:15 AM,50.0,42.8,76,30.09,10.0,West,16.1,31.1,N/A,,Overcast,270,2012-10-10 15:15:00
11:35 AM,50.0,42.8,76,30.08,10.0,WNW,20.7,28.8,N/A,,Overcast,290,2012-10-10 15:35:00
11:55 AM,51.8,42.8,71,30.07,10.0,West,20.7,34.5,N/A,,Overcast,280,2012-10-10 15:55:00
12:15 PM,51.8,42.8,71,30.08,10.0,West,11.5,27.6,N/A,,Overcast,270,2012-10-10 16:15:00
12:35 PM,51.8,42.8,71,30.08,10.0,WNW,19.6,32.2,N/A,,Mostly Cloudy,290,2012-10-10 16:35:00
12:55 PM,51.8,42.8,71,30.09,10.0,WNW,15.0,34.5,N/A,,Overcast,290,2012-10-10 16:55:00
1:15 PM,51.8,42.8,71,30.09,10.0,West,19.6,27.6,N/A,,Overcast,280,2012-10-10 17:15:00
1:35 PM,51.8,42.8,71,30.08,10.0,WNW,17.3,26.5,N/A,,Overcast,290,2012-10-10 17:35:00
1:55 PM,51.8,42.8,71,30.08,10.0,WNW,23.0,29.9,N/A,,Overcast,300,2012-10-10 17:55:00
2:15 PM,51.8,42.8,71,30.07,10.0,WNW,18.4,29.9,N/A,,Overcast,290,2012-10-10 18:15:00
2:35 PM,53.6,42.8,67,30.07,10.0,WNW,16.1,23.0,N/A,,Mostly Cloudy,300,2012-10-10 18:35:00
2:55 PM,53.6,42.8,67,30.06,10.0,West,20.7,25.3,N/A,,Overcast,280,2012-10-10 18:55:00
3:15 PM,53.6,42.8,67,30.07,10.0,WNW,17.3,24.2,N/A,,Overcast,290,2012-10-10 19:15:00
3:35 PM,53.6,42.8,67,30.06,10.0,WNW,15.0,25.3,N/A,,Overcast,300,2012-10-10 19:35:00
3:55 PM,53.6,42.8,67,30.06,10.0,WNW,17.3,25.3,N/A,,Overcast,290,2012-10-10 19:55:00
4:15 PM,53.6,42.8,67,30.06,10.0,West,21.9,28.8,N/A,,Overcast,280,2012-10-10 20:15:00
4:35 PM,51.8,42.8,71,30.06,10.0,WNW,20.7,27.6,N/A,,Overcast,300,2012-10-10 20:35:00
4:55 PM,51.8,42.8,71,30.07,10.0,WNW,15.0,25.3,N/A,,Overcast,300,2012-10-10 20:55:00
5:15 PM,51.8,42.8,71,30.07,10.0,West,21.9,31.1,N/A,,Overcast,280,2012-10-10 21:15:00
5:35 PM,51.8,42.8,71,30.08,10.0,West,17.3,28.8,N/A,,Overcast,280,2012-10-10 21:35:00
5:55 PM,51.8,41.0,67,30.08,10.0,West,11.5,19.6,N/A,,Overcast,280,2012-10-10 21:55:00
6:15 PM,51.8,41.0,67,30.08,10.0,NW,15.0,28.8,N/A,,Overcast,320,2012-10-10 22:15:00
6:55 PM,51.8,41.0,67,30.09,10.0,WNW,15.0,21.9,N/A,,Overcast,300,2012-10-10 22:55:00
7:15 PM,51.8,41.0,67,30.09,10.0,WNW,10.4,28.8,N/A,,Overcast,290,2012-10-10 23:15:00
7:35 PM,50.0,41.0,71,30.10,10.0,WNW,15.0,20.7,N/A,,Overcast,290,2012-10-10 23:35:00
7:55 PM,50.0,39.2,66,30.10,10.0,WNW,16.1,31.1,N/A,,Overcast,300,2012-10-10 23:55:00
8:15 PM,50.0,39.2,66,30.11,10.0,WNW,10.4,19.6,N/A,,Overcast,300,2012-10-11 00:15:00
8:35 PM,50.0,39.2,66,30.11,10.0,West,19.6,29.9,N/A,,Overcast,280,2012-10-11 00:35:00
8:55 PM,50.0,37.4,62,30.12,10.0,NW,13.8,-,N/A,,Mostly Cloudy,310,2012-10-11 00:55:00
9:15 PM,50.0,37.4,62,30.12,10.0,WNW,18.4,26.5,N/A,,Scattered Clouds,300,2012-10-11 01:15:00
9:35 PM,48.2,37.4,66,30.13,10.0,WNW,17.3,27.6,N/A,,Scattered Clouds,300,2012-10-11 01:35:00
9:55 PM,48.2,37.4,66,30.13,10.0,NNW,6.9,-,N/A,,Mostly Cloudy,330,2012-10-11 01:55:00
10:15 PM,46.4,35.6,66,30.15,10.0,NNW,6.9,16.1,N/A,,Scattered Clouds,340,2012-10-11 02:15:00
10:35 PM,46.4,35.6,66,30.15,10.0,WNW,3.5,-,N/A,,Scattered Clouds,300,2012-10-11 02:35:00
11:15 PM,46.4,35.6,66,30.16,10.0,NW,3.5,-,N/A,,Mostly Cloudy,320,2012-10-11 03:15:00
11:35 PM,44.6,35.6,71,30.17,10.0,NW,5.8,-,N/A,,Scattered Clouds,310,2012-10-11 03:35:00
11:55 PM,44.6,33.8,66,30.18,10.0,NW,5.8,18.4,N/A,,Scattered Clouds,310,2012-10-11 03:55:00